SCP
0 0 0 0 1 0 0 0 0 0 0 0 0 0 0 0 0 0 0 0 0 -0 0 0 0 0 0 1 0 0 0 0 0 0 1 0 0 0 0 0 0 0 0
0 0 0 0 0 0 0 0 0 0 -0 0 0 0 0 0 0 0 0 0 0 0 0 0 0 0 0 0 1 1 1 1 0 0 1 1 0 0 0 0 0 0 0
0 0 0 -0 0 -0 0 0 0 1 1 0 0 0 0 0 0 0 0 0 0 0 0 0 -0 0 -0 0 0 0 1 1 1 1 0 1 0 1 1 0 0 0 0
0 -0 -0 -0 -0 -0 0 0 0 1 1 1 1 1 0 1 1 0 0 0 0 0 -0 0 0 0 0 0 0 0 0 1 1 1 1 1 1 0 1 1 0 0 0
-0 -0 -0 -0 -0 -0 0 0 0 1 1 1 1 1 1 1 1 0 0 0 0 0 0 0 0 0 0 0 0 0 0 1 1 1 1 0 0 0 1 1 0 0 0
0 0 0 0 1 0 1 1 1 1 1 1 1 1 1 1 1 0 0 0 0 0 0 0 0 0 0 0 0 0 0 0 0 1 0 1 0 0 0 0 0 0 0
0 1 1 1 1 1 1 1 1 1 1 1 2 1 1 1 0 0 0 0 0 0 0 0 0 0 0 0 0 0 0 0 0 0 0 1 0 0 0 0 0 0 0
1 1 1 2 1 1 1 1 1 1 1 1 1 1 1 1 1 0 0 0 0 0 0 0 0 0 0 0 0 0 0 0 0 0 0 1 0 1 0 0 0 0 0
1 1 1 0 0 0 0 0 0 0 0 0 1 1 1 1 0 0 0 0 0 0 0 0 0 0 0 0 0 0 0 0 0 0 0 0 0 0 0 0 0 0 0
1 1 1 1 0 0 0 0 0 0 0 0 0 0 0 0 0 0 0 0 0 0 0 0 0 0 0 0 0 0 0 1 0 0 0 0 0 0 0 0 0 0 0
1 1 0 0 0 0 0 0 0 0 0 0 0 0 0 0 0 0 0 0 0 0 1 1 1 0 0 0 0 0 0 1 1 1 0 0 0 0 0 0 0 1 0
1 0 0 0 0 0 0 0 0 0 0 0 0 0 0 0 0 0 0 0 0 0 0 0 1 0 0 0 0 0 0 0 1 1 0 0 0 0 0 0 0 0 1
0 0 0 0 0 0 0 0 0 0 0 0 0 0 0 0 0 0 0 0 0 0 0 0 0 0 0 0 0 0 0 0 1 1 1 0 1 1 1 1 0 0 0
0 0 0 0 0 0 0 0 0 0 0 0 0 0 0 0 0 0 0 0 0 0 0 0 0 0 0 0 0 0 0 1 1 1 1 1 1 1 1 1 1 1 1
0 0 0 0 0 0 0 0 0 0 0 0 0 0 0 0 0 0 0 0 0 0 0 0 0 0 0 0 0 1 1 1 1 1 2 2 1 1 1 1 1 1 1
0 0 0 0 0 0 0 0 0 0 0 0 0 0 0 0 0 0 0 0 0 0 0 0 0 0 0 0 0 0 1 0 1 1 2 2 2 1 2 2 2 1 1
0 0 0 0 0 0 0 0 0 0 0 0 0 0 0 0 0 0 0 0 0 0 0 0 0 0 0 0 0 0 0 0 1 1 2 2 2 2 2 3 2 2 1
0 0 0 0 0 0 0 0 0 0 0 0 0 0 0 0 0 0 0 0 0 0 0 0 0 0 0 0 0 0 0 0 0 1 1 2 2 2 2 3 3 2 2
0 0 0 0 0 0 0 0 0 0 0 0 0 0 0 0 0 0 0 0 0 0 0 0 0 0 0 0 0 0 0 0 0 1 1 1 2 3 2 2 2 1 1
0 0 0 0 0 0 0 0 0 0 0 0 0 0 0 0 0 0 0 0 0 0 0 0 0 0 0 0 0 0 0 1 1 1 1 1 1 2 2 2 2 2 2
0 0 0 0 0 0 0 0 0 0 0 0 0 0 0 0 0 0 0 0 0 0 0 0 0 0 0 0 0 0 0 0 1 1 1 2 1 1 1 1 1 1 1
0 0 0 0 0 0 0 0 0 0 0 0 0 0 0 0 0 0 0 0 0 0 0 0 0 0 0 0 0 0 0 0 0 0 1 1 1 1 1 1 1 1 1
0 0 0 0 0 0 0 0 0 0 0 0 0 0 0 0 0 0 0 0 0 0 0 0 0 0 0 0 0 0 0 0 0 0 1 1 1 1 1 1 1 1 1
0 0 0 0 0 0 0 0 0 0 0 0 0 0 0 0 0 0 0 0 0 0 0 0 0 0 0 0 0 0 0 0 0 0 0 1 1 1 1 1 1 1 1
0 0 0 0 0 0 0 0 0 0 0 0 0 0 0 0 0 0 0 0 0 0 0 0 0 0 0 0 0 0 0 0 0 0 0 0 0 0 0 0 1 1 1
0 -0 0 -0 0 0 0 0 0 0 0 0 0 0 0 0 0 0 0 0 0 0 0 0 0 0 0 0 0 0 0 0 0 0 0 0 0 0 0 0 0 0 0
Wind_Speed_500mb
53 58 51 36 44 52 41 38 39 43 38 30 25 29 35 38 37 36 27 34 33 22 12 15 23 30 35 34 36 37 44 41 51 51 43 36 33 28 29 28 31 35 29
49 48 40 46 44 44 51 41 35 33 28 27 28 28 29 24 23 24 24 26 19 17 14 15 14 23 31 25 31 39 40 41 46 51 45 41 36 32 31 32 32 35 35
42 35 26 15 18 27 31 37 42 27 28 32 34 34 34 25 26 27 25 27 29 24 26 24 32 31 21 29 35 33 35 36 44 47 46 43 34 32 35 36 37 37 35
32 24 18 14 19 26 33 32 27 28 35 39 36 36 36 32 32 33 31 29 33 37 37 35 38 43 44 41 43 45 46 47 49 49 46 39 32 33 40 37 37 38 34
26 27 20 21 29 26 27 26 27 30 33 33 32 33 37 36 36 36 37 36 39 41 45 45 44 39 36 40 47 46 41 44 46 49 45 42 40 41 39 39 40 35 37
19 16 13 15 17 19 21 22 25 29 31 35 33 35 38 38 34 32 34 38 40 44 42 39 34 22 40 43 39 40 38 37 36 42 38 42 42 41 31 41 39 40 34
13 11 11 12 14 17 21 24 28 31 35 37 38 39 41 39 41 43 38 42 40 39 36 29 23 22 27 27 25 28 30 31 32 35 42 39 44 35 30 37 48 46 38
10 9 10 12 15 18 21 25 28 29 31 32 33 34 37 37 37 38 39 43 47 45 40 32 29 18 18 22 19 19 24 26 28 31 35 36 39 37 33 39 43 52 46
14 13 14 17 21 25 29 31 33 34 34 36 38 39 41 43 39 40 41 46 48 45 39 40 40 37 27 30 32 29 25 23 26 28 25 27 35 36 51 30 39 50 48
13 13 15 19 23 28 32 37 39 43 46 47 47 48 49 52 51 50 49 49 51 53 49 46 45 47 38 36 42 42 44 31 27 21 23 24 22 25 27 35 43 50 47
15 14 19 26 32 37 40 43 45 46 49 52 55 57 60 60 59 58 55 56 57 58 59 58 57 55 51 47 45 48 47 35 47 48 38 30 17 30 41 31 45 50 48
14 24 32 36 37 40 45 48 54 55 55 55 57 59 57 58 57 56 58 58 56 58 63 62 61 67 57 53 55 53 49 47 45 46 43 39 29 27 24 26 38 47 48
23 32 38 40 43 49 57 61 62 61 58 57 47 49 49 49 53 58 52 49 51 56 61 63 65 67 69 67 62 58 57 56 56 53 48 44 37 33 30 29 22 26 37
33 41 44 50 55 59 64 66 63 58 48 46 49 52 51 47 48 49 51 50 48 52 47 48 61 62 65 68 69 66 61 63 63 61 58 54 51 45 41 32 25 23 28
37 45 51 57 66 67 62 58 58 56 52 48 48 47 52 55 53 60 65 64 60 58 66 62 56 52 52 61 63 66 67 60 64 66 65 61 61 55 51 41 32 27 27
45 50 55 58 59 55 54 54 54 54 52 54 53 55 61 66 65 63 64 65 61 56 63 61 57 55 54 55 53 50 50 64 64 58 58 59 58 57 58 50 40 35 31
51 53 52 51 51 50 51 46 50 56 62 68 69 70 74 79 80 77 78 78 74 69 71 68 60 58 58 54 55 57 57 51 54 63 57 52 49 52 55 45 44 42 39
48 48 46 47 48 44 43 47 51 55 63 75 80 87 92 93 91 86 83 74 73 72 77 70 63 55 53 54 55 56 58 54 52 50 51 54 52 49 54 49 43 40 40
41 41 44 43 43 52 57 58 58 61 64 67 69 76 70 64 61 62 57 58 57 59 59 60 56 55 57 54 52 53 57 54 54 52 50 53 57 56 57 56 52 52 50
38 39 43 48 52 55 55 57 60 60 62 63 60 57 56 59 66 58 51 50 57 61 54 58 61 59 54 49 47 49 53 53 50 54 53 47 48 54 54 54 55 53 49
40 45 49 54 53 56 60 61 60 63 60 69 72 71 69 66 66 67 71 69 62 63 66 62 58 55 54 50 48 49 53 53 50 51 57 56 51 52 47 48 50 50 48
42 49 56 61 65 65 64 65 60 56 59 64 64 71 64 62 62 60 62 61 61 64 65 61 64 57 46 47 43 42 45 45 46 46 51 48 43 45 51 57 51 50 56
47 54 59 60 59 64 61 54 52 52 55 58 64 68 67 68 67 63 62 63 58 57 57 60 60 58 50 46 41 48 47 47 47 47 47 48 41 39 39 44 44 50 56
52 55 56 58 58 52 49 47 47 48 52 57 60 64 66 66 64 58 59 55 51 44 45 51 40 47 46 52 45 40 44 41 42 41 40 40 37 41 47 47 47 48 51
52 58 59 57 50 45 43 41 42 47 51 57 61 63 60 60 57 44 42 39 34 31 28 38 31 16 37 41 48 48 54 54 50 46 48 51 52 49 46 53 51 47 48
57 59 55 46 40 37 37 40 42 46 51 53 54 53 51 49 41 32 29 25 25 26 26 22 14 16 25 33 42 53 55 56 57 59 60 60 61 61 63 64 61 51 51
Wind_Direction_500mb
244 265 276 252 256 252 282 287 286 288 296 288 295 297 292 288 289 297 305 310 322 343 269 260 274 271 272 276 280 280 282 281 279 288 287 289 277 273 271 264 248 242 241
243 271 278 264 267 267 275 282 280 276 283 289 294 300 299 293 291 294 297 308 297 328 312 309 293 287 275 272 278 281 271 277 279 285 286 284 285 280 272 261 258 245 244
241 248 248 247 254 263 272 282 269 259 270 279 280 284 286 284 287 286 294 289 287 281 290 286 285 296 288 293 289 272 272 272 275 273 274 280 272 283 272 265 258 252 243
245 253 238 246 269 281 281 273 257 263 266 273 279 281 278 282 279 279 278 286 288 289 287 287 287 285 289 291 281 261 271 267 267 266 265 270 252 265 269 264 258 249 243
242 246 256 270 285 287 289 274 264 272 269 276 283 280 275 281 280 277 268 276 281 282 284 291 295 300 300 294 277 269 263 264 267 261 257 259 256 269 274 280 259 246 240
224 223 234 246 269 282 284 281 276 275 275 279 283 278 274 275 273 273 268 273 279 283 282 282 285 279 301 301 285 268 269 261 260 256 257 255 263 286 295 278 265 248 244
187 206 227 255 275 284 291 292 291 288 283 278 274 268 271 273 273 271 273 278 282 289 283 269 257 293 312 312 298 275 266 261 263 261 261 257 261 267 265 272 267 253 243
200 216 243 257 271 283 291 295 297 295 292 286 280 279 281 281 277 280 280 276 282 288 283 260 256 280 310 293 292 278 272 275 278 269 262 264 258 267 267 266 260 260 253
225 246 267 278 289 295 297 300 300 298 294 289 286 283 281 283 285 283 280 282 288 290 277 264 247 268 282 273 271 275 278 263 275 264 268 274 258 254 260 285 259 251 251
243 257 270 283 293 298 298 297 293 290 288 286 283 281 280 281 282 283 283 283 284 286 284 272 260 265 273 268 269 270 273 259 255 256 271 267 265 292 294 277 266 256 254
241 262 290 302 306 309 311 311 307 299 293 289 287 286 284 282 283 283 281 279 277 276 276 277 273 268 267 265 260 262 264 266 252 261 261 256 305 281 271 254 250 252 255
281 301 301 302 306 309 309 308 306 304 301 298 296 293 292 291 288 285 283 279 277 274 272 270 271 273 268 261 256 255 258 256 255 260 256 250 235 262 298 267 259 260 261
304 312 306 302 303 303 304 304 304 301 298 299 297 295 295 294 296 295 290 289 284 278 276 274 271 271 271 266 260 253 250 251 250 250 250 244 237 236 233 235 254 276 272
315 305 300 298 299 300 301 302 300 297 296 296 296 296 295 294 293 292 293 293 291 290 289 281 273 271 269 267 264 261 253 248 249 249 249 250 250 245 232 228 238 261 285
291 291 293 297 300 300 300 299 298 297 298 297 297 295 293 293 292 294 294 289 286 283 283 282 278 273 269 267 264 260 257 252 247 248 250 249 248 247 242 237 238 244 270
286 290 296 299 299 301 303 303 300 298 296 294 293 292 295 294 295 295 294 291 290 285 282 277 271 269 266 261 260 259 257 257 254 250 250 248 246 241 238 237 237 241 255
293 300 301 300 299 299 300 301 301 302 303 303 301 298 296 295 294 289 287 285 280 275 272 268 265 265 261 261 259 256 256 254 257 258 255 249 246 236 230 224 234 241 248
300 299 299 299 298 297 296 298 300 300 301 303 303 301 300 298 296 293 290 284 273 269 266 262 260 261 258 261 261 254 252 254 251 248 248 248 248 238 230 230 229 237 247
295 298 299 300 299 298 299 300 299 298 296 296 298 299 298 296 295 296 294 284 277 269 262 260 262 257 256 258 257 252 246 248 249 251 251 248 244 246 241 233 238 247 251
298 300 301 302 302 301 300 298 297 297 297 298 300 299 300 302 302 298 286 284 281 275 270 262 258 255 254 251 252 250 246 245 252 248 247 248 243 242 242 240 242 246 249
300 305 308 307 304 302 300 298 297 298 298 302 304 305 306 303 299 297 296 292 284 277 269 264 261 255 251 246 249 249 247 250 248 246 242 250 249 245 239 242 245 245 244
308 313 312 311 308 305 302 301 302 302 305 308 309 312 309 305 301 298 302 296 287 278 272 264 262 255 245 242 240 240 245 247 243 244 245 243 247 250 250 253 249 249 250
317 317 316 313 310 311 312 309 308 311 310 310 313 316 317 312 306 299 300 304 293 280 274 260 250 262 243 241 240 244 251 245 246 246 245 249 245 249 249 249 246 249 254
327 323 319 319 319 317 315 315 315 318 319 322 322 323 320 315 309 296 296 301 294 284 278 260 252 258 238 235 238 245 239 243 252 253 256 254 249 250 252 258 261 257 254
333 336 336 331 325 323 323 323 328 333 331 330 329 329 327 324 320 312 303 302 292 285 295 272 268 269 217 231 235 239 242 250 258 259 261 262 261 259 254 260 262 260 250
345 344 339 336 332 332 332 334 340 341 340 339 339 341 341 340 341 338 330 318 296 288 290 255 270 254 233 230 235 240 246 251 253 257 261 259 257 260 260 258 259 253 248
Wind_Speed_850mb
53 58 51 36 44 52 41 38 39 43 38 30 25 29 35 38 37 36 27 34 33 22 12 15 23 30 35 34 36 37 44 41 51 51 43 36 33 28 29 28 31 35 29
49 48 40 46 44 44 51 41 35 33 28 27 28 28 29 24 23 24 24 26 19 17 14 15 14 23 31 25 31 39 40 41 46 51 45 41 36 32 31 32 32 35 35
42 35 26 15 18 27 31 37 42 27 28 32 34 34 34 25 26 27 25 27 29 24 26 24 32 31 21 29 35 33 35 36 44 47 46 43 34 32 35 36 37 37 35
32 24 18 14 19 26 33 32 27 28 35 39 36 36 36 32 32 33 31 29 33 37 37 35 38 43 44 41 43 45 46 47 49 49 46 39 32 33 40 37 37 38 34
26 27 20 21 29 26 27 26 27 30 33 33 32 33 37 36 36 36 37 36 39 41 45 45 44 39 36 40 47 46 41 44 46 49 45 42 40 41 39 39 40 35 37
19 16 13 15 17 19 21 22 25 29 31 35 33 35 38 38 34 32 34 38 40 44 42 39 34 22 40 43 39 40 38 37 36 42 38 42 42 41 31 41 39 40 34
13 11 11 12 14 17 21 24 28 31 35 37 38 39 41 39 41 43 38 42 40 39 36 29 23 22 27 27 25 28 30 31 32 35 42 39 44 35 30 37 48 46 38
10 9 10 12 15 18 21 25 28 29 31 32 33 34 37 37 37 38 39 43 47 45 40 32 29 18 18 22 19 19 24 26 28 31 35 36 39 37 33 39 43 52 46
14 13 14 17 21 25 29 31 33 34 34 36 38 39 41 43 39 40 41 46 48 45 39 40 40 37 27 30 32 29 25 23 26 28 25 27 35 36 51 30 39 50 48
13 13 15 19 23 28 32 37 39 43 46 47 47 48 49 52 51 50 49 49 51 53 49 46 45 47 38 36 42 42 44 31 27 21 23 24 22 25 27 35 43 50 47
15 14 19 26 32 37 40 43 45 46 49 52 55 57 60 60 59 58 55 56 57 58 59 58 57 55 51 47 45 48 47 35 47 48 38 30 17 30 41 31 45 50 48
14 24 32 36 37 40 45 48 54 55 55 55 57 59 57 58 57 56 58 58 56 58 63 62 61 67 57 53 55 53 49 47 45 46 43 39 29 27 24 26 38 47 48
23 32 38 40 43 49 57 61 62 61 58 57 47 49 49 49 53 58 52 49 51 56 61 63 65 67 69 67 62 58 57 56 56 53 48 44 37 33 30 29 22 26 37
33 41 44 50 55 59 64 66 63 58 48 46 49 52 51 47 48 49 51 50 48 52 47 48 61 62 65 68 69 66 61 63 63 61 58 54 51 45 41 32 25 23 28
37 45 51 57 66 67 62 58 58 56 52 48 48 47 52 55 53 60 65 64 60 58 66 62 56 52 52 61 63 66 67 60 64 66 65 61 61 55 51 41 32 27 27
45 50 55 58 59 55 54 54 54 54 52 54 53 55 61 66 65 63 64 65 61 56 63 61 57 55 54 55 53 50 50 64 64 58 58 59 58 57 58 50 40 35 31
51 53 52 51 51 50 51 46 50 56 62 68 69 70 74 79 80 77 78 78 74 69 71 68 60 58 58 54 55 57 57 51 54 63 57 52 49 52 55 45 44 42 39
48 48 46 47 48 44 43 47 51 55 63 75 80 87 92 93 91 86 83 74 73 72 77 70 63 55 53 54 55 56 58 54 52 50 51 54 52 49 54 49 43 40 40
41 41 44 43 43 52 57 58 58 61 64 67 69 76 70 64 61 62 57 58 57 59 59 60 56 55 57 54 52 53 57 54 54 52 50 53 57 56 57 56 52 52 50
38 39 43 48 52 55 55 57 60 60 62 63 60 57 56 59 66 58 51 50 57 61 54 58 61 59 54 49 47 49 53 53 50 54 53 47 48 54 54 54 55 53 49
40 45 49 54 53 56 60 61 60 63 60 69 72 71 69 66 66 67 71 69 62 63 66 62 58 55 54 50 48 49 53 53 50 51 57 56 51 52 47 48 50 50 48
42 49 56 61 65 65 64 65 60 56 59 64 64 71 64 62 62 60 62 61 61 64 65 61 64 57 46 47 43 42 45 45 46 46 51 48 43 45 51 57 51 50 56
47 54 59 60 59 64 61 54 52 52 55 58 64 68 67 68 67 63 62 63 58 57 57 60 60 58 50 46 41 48 47 47 47 47 47 48 41 39 39 44 44 50 56
52 55 56 58 58 52 49 47 47 48 52 57 60 64 66 66 64 58 59 55 51 44 45 51 40 47 46 52 45 40 44 41 42 41 40 40 37 41 47 47 47 48 51
52 58 59 57 50 45 43 41 42 47 51 57 61 63 60 60 57 44 42 39 34 31 28 38 31 16 37 41 48 48 54 54 50 46 48 51 52 49 46 53 51 47 48
57 59 55 46 40 37 37 40 42 46 51 53 54 53 51 49 41 32 29 25 25 26 26 22 14 16 25 33 42 53 55 56 57 59 60 60 61 61 63 64 61 51 51
Wind_Direction_850mb
244 265 276 252 256 252 282 287 286 288 296 288 295 297 292 288 289 297 305 310 322 343 269 260 274 271 272 276 280 280 282 281 279 288 287 289 277 273 271 264 248 242 241
243 271 278 264 267 267 275 282 280 276 283 289 294 300 299 293 291 294 297 308 297 328 312 309 293 287 275 272 278 281 271 277 279 285 286 284 285 280 272 261 258 245 244
241 248 248 247 254 263 272 282 269 259 270 279 280 284 286 284 287 286 294 289 287 281 290 286 285 296 288 293 289 272 272 272 275 273 274 280 272 283 272 265 258 252 243
245 253 238 246 269 281 281 273 257 263 266 273 279 281 278 282 279 279 278 286 288 289 287 287 287 285 289 291 281 261 271 267 267 266 265 270 252 265 269 264 258 249 243
242 246 256 270 285 287 289 274 264 272 269 276 283 280 275 281 280 277 268 276 281 282 284 291 295 300 300 294 277 269 263 264 267 261 257 259 256 269 274 280 259 246 240
224 223 234 246 269 282 284 281 276 275 275 279 283 278 274 275 273 273 268 273 279 283 282 282 285 279 301 301 285 268 269 261 260 256 257 255 263 286 295 278 265 248 244
187 206 227 255 275 284 291 292 291 288 283 278 274 268 271 273 273 271 273 278 282 289 283 269 257 293 312 312 298 275 266 261 263 261 261 257 261 267 265 272 267 253 243
200 216 243 257 271 283 291 295 297 295 292 286 280 279 281 281 277 280 280 276 282 288 283 260 256 280 310 293 292 278 272 275 278 269 262 264 258 267 267 266 260 260 253
225 246 267 278 289 295 297 300 300 298 294 289 286 283 281 283 285 283 280 282 288 290 277 264 247 268 282 273 271 275 278 263 275 264 268 274 258 254 260 285 259 251 251
243 257 270 283 293 298 298 297 293 290 288 286 283 281 280 281 282 283 283 283 284 286 284 272 260 265 273 268 269 270 273 259 255 256 271 267 265 292 294 277 266 256 254
241 262 290 302 306 309 311 311 307 299 293 289 287 286 284 282 283 283 281 279 277 276 276 277 273 268 267 265 260 262 264 266 252 261 261 256 305 281 271 254 250 252 255
281 301 301 302 306 309 309 308 306 304 301 298 296 293 292 291 288 285 283 279 277 274 272 270 271 273 268 261 256 255 258 256 255 260 256 250 235 262 298 267 259 260 261
304 312 306 302 303 303 304 304 304 301 298 299 297 295 295 294 296 295 290 289 284 278 276 274 271 271 271 266 260 253 250 251 250 250 250 244 237 236 233 235 254 276 272
315 305 300 298 299 300 301 302 300 297 296 296 296 296 295 294 293 292 293 293 291 290 289 281 273 271 269 267 264 261 253 248 249 249 249 250 250 245 232 228 238 261 285
291 291 293 297 300 300 300 299 298 297 298 297 297 295 293 293 292 294 294 289 286 283 283 282 278 273 269 267 264 260 257 252 247 248 250 249 248 247 242 237 238 244 270
286 290 296 299 299 301 303 303 300 298 296 294 293 292 295 294 295 295 294 291 290 285 282 277 271 269 266 261 260 259 257 257 254 250 250 248 246 241 238 237 237 241 255
293 300 301 300 299 299 300 301 301 302 303 303 301 298 296 295 294 289 287 285 280 275 272 268 265 265 261 261 259 256 256 254 257 258 255 249 246 236 230 224 234 241 248
300 299 299 299 298 297 296 298 300 300 301 303 303 301 300 298 296 293 290 284 273 269 266 262 260 261 258 261 261 254 252 254 251 248 248 248 248 238 230 230 229 237 247
295 298 299 300 299 298 299 300 299 298 296 296 298 299 298 296 295 296 294 284 277 269 262 260 262 257 256 258 257 252 246 248 249 251 251 248 244 246 241 233 238 247 251
298 300 301 302 302 301 300 298 297 297 297 298 300 299 300 302 302 298 286 284 281 275 270 262 258 255 254 251 252 250 246 245 252 248 247 248 243 242 242 240 242 246 249
300 305 308 307 304 302 300 298 297 298 298 302 304 305 306 303 299 297 296 292 284 277 269 264 261 255 251 246 249 249 247 250 248 246 242 250 249 245 239 242 245 245 244
308 313 312 311 308 305 302 301 302 302 305 308 309 312 309 305 301 298 302 296 287 278 272 264 262 255 245 242 240 240 245 247 243 244 245 243 247 250 250 253 249 249 250
317 317 316 313 310 311 312 309 308 311 310 310 313 316 317 312 306 299 300 304 293 280 274 260 250 262 243 241 240 244 251 245 246 246 245 249 245 249 249 249 246 249 254
327 323 319 319 319 317 315 315 315 318 319 322 322 323 320 315 309 296 296 301 294 284 278 260 252 258 238 235 238 245 239 243 252 253 256 254 249 250 252 258 261 257 254
333 336 336 331 325 323 323 323 328 333 331 330 329 329 327 324 320 312 303 302 292 285 295 272 268 269 217 231 235 239 242 250 258 259 261 262 261 259 254 260 262 260 250
345 344 339 336 332 332 332 334 340 341 340 339 339 341 341 340 341 338 330 318 296 288 290 255 270 254 233 230 235 240 246 251 253 257 261 259 257 260 260 258 259 253 248